AirNav   Air Wisconsin Airman Trainee
 
 1532 users online  

29S Gardiner Airport
Gardiner, Montana, USA

GOING TO GARDINER?


FAA INFORMATION EFFECTIVE 25 APRIL 2019

Location

FAA Identifier: 29S
Lat/Long: 45-02-59.7680N / 110-44-47.7630W
45-02.996133N / 110-44.796050W
45.0499356 / -110.7466008
(estimated)
Elevation: 5286 ft. / 1611 m (estimated)
Variation: 16E (1985)
From city: 2 miles NW of GARDINER, MT
Time zone: UTC -6 (UTC -7 during Standard Time)
Zip code: 59030

Airport Operations

Airport use: Open to the public
Activation date: 09/1929
Control tower: no
ARTCC: SALT LAKE CITY CENTER
FSS: GREAT FALLS FLIGHT SERVICE STATION
NOTAMs facility: GTF (NOTAM-D service available)
Attendance: MON-FRI 0800-1700
Wind indicator: lighted
Segmented circle: yes
Lights: ACTVT LIRL RY 10/28 - CTAF.

Airport Communications

CTAF/UNICOM: 122.8

Airport Services

Parking: tiedowns
Bottled oxygen: NONE
Bulk oxygen: NONE

Runway Information

Runway 10/28

Dimensions: 3200 x 55 ft. / 975 x 17 m
Surface: asphalt/aggregate friction seal coat, in poor condition
LARGE CRACKS AND VEGETATION GROWTH THROUGHOUT RUNWAY SURFACE
Weight bearing capacity: 
Single wheel: 4.0
Runway edge lights: low intensity
Runway edge markings: NO CNTRLN RWY 10/28
RUNWAY 10  RUNWAY 28
Traffic pattern: rightleft
Markings: basic, in poor conditionbasic, in poor condition
Obstructions: none422 ft. hill, 4000 ft. from runway, 10:1 slope to clear
PUBLIC ROAD 85 FEET FROM END OF RWY BOTH SIDES ON CENTERLINE

Airport Ownership and Management from official FAA records

Ownership: Publicly-owned
Owner: CITY & COUNTY
COUNTY BLDG
LIVINGSTON, MT 59047
Phone 406-222-6120
Manager: HUNTER MICHELBRINK
414 E CALLENDER ST
LIVINGSTON, MT 59047
Phone (406) 848-7200

Airport Operational Statistics

Aircraft based on the field: 4
Single engine airplanes: 3
Helicopters: 1
    
Aircraft operations: avg 78/month *
54% local general aviation
43% transient general aviation
3% air taxi
* for 12-month period ending 22 August 2017

Additional Remarks

RY 10 MTN 1 1/2 MILE IS 9:1 RATIO.
RY LIGHTS FOR EMERGENCY USE ONLY.

Instrument Procedures

There are no published instrument procedures at 29S.

Some nearby airports with instrument procedures:

KWYS - Yellowstone Airport (27 nm SW)
KEKS - Ennis - Big Sky Airport (40 nm W)
KLVM - Mission Field Airport (41 nm N)
KBZN - Bozeman Yellowstone International Airport (47 nm N)
6S0 - Big Timber Airport (56 nm NE)
 
Loc | Ops | Rwys | IFR | FBO | Links
Com | Nav | Svcs | Stats | Notes
Area around 29S (Gardiner Airport)
 
Road maps at: MapQuest Bing Google
 
Aerial photo
WARNING: Photo may not be current or correct
Aerial photo of 29S (Gardiner Airport)
Photo taken 27-May-2005

Do you have a better or more recent aerial photo of Gardiner Airport that you would like to share? If so, please send us your photo.

 
Sectional chart

 
Airport distance calculator
Flying to Gardiner Airport? Find the distance to fly.

From to 29S

Sunrise and sunset
Times for 25-Apr-2019
 Local
(UTC-6)
 Zulu
(UTC)
Morning civil twilight05:5111:51
Sunrise06:2212:22
Sunset20:2002:20
Evening civil twilight20:5102:51

Current date and time
Zulu (UTC)  25-Apr-2019 17:19:07
Local (UTC-6)  25-Apr-2019 11:19:07
 
METAR
KWYS 
28nm SW 
251655Z AUTO 00000KT 10SM CLR 06/M07 A3020 RMK AO2
KP60 
33nm SE 
251656Z AUTO VRB03KT M01/M03 A3026 RMK AO1 SLP257 T10111033
KLVM 
41nm N 
251653Z AUTO 07014G21KT 10SM CLR 08/M01 A3024 RMK AO2 SLP243 T00781011
KBZN 
47nm N 
251656Z 06004KT 10SM CLR 10/M03 A3023 RMK AO2 SLP237 T01001033
TAF
KEKS 
40nm W 
251121Z 2512/2612 VRB06KT P6SM SKC FM252100 20009KT P6SM FEW070 SCT140 FM261000 18008KT P6SM SCT040 BKN120
KLVM 
41nm N 
251521Z 2515/2612 08012G20KT P6SM FEW025 TEMPO 2516/2518 BKN025 FM260000 10013KT P6SM BKN250
KBZN 
47nm N 
251121Z 2512/2618 16008KT P6SM SKC FM252300 18006KT P6SM SCT120 FM261500 27009KT 5SM -SHRA BR BKN015 OVC030
NOTAMs
Click for the latest NOTAMs
NOTAMs are issued by the DoD/FAA and will open in a separate window not controlled by AirNav.

 

 
 

Would you like to see your business listed on this page?

 If your business provides an interesting product or service to pilots, flight crews, aircraft, or users of the Gardiner Airport, you should consider listing it here.  To start the listing process, click on the button below
 
Add a business
 

Other Pages about Gardiner Airport

Update a link
 
Copyright © AirNav, LLC. All rights reserved. Privacy Policy  Contact